EW9214 Weather Reports


time (UTC)temp
F
wind
direction
speed
knots
gust
knots
rain 1hr
in
rain 24hr
in
rain mn
in
humidity
%
barometer
mb
20260505024502 57 48 19.1 26.1 0.00 0.00 0.00 40 998.3
20260505023058 58 52 14.8 20.9 0.00 0.00 0.00 40 997.9
20260505021559 58 350 9.6 15.6 0.00 0.00 0.00 41 997.6
20260505020052 58 335 9.6 13.9 0.00 0.00 0.00 40 997.4
20260505014605 59 313 10.4 14.8 0.00 0.00 0.00 39 997.5
20260505013049 60 325 7.0 13.9 0.00 0.00 0.00 37 997.4
20260505011552 63 328 8.7 12.2 0.00 0.00 0.00 31 997.6
20260505010040 63 44 4.3 20.9 0.00 0.00 0.00 28 997.3
20260505004540 64 333 12.2 21.7 0.00 0.00 0.00 27 997.1
20260505003035 65 284 7.8 14.8 0.00 0.00 0.00 27 997.1
20260505001534 66 360 7.0 13.0 0.00 0.00 0.00 25 997.0
20260505000045 65 237 7.0 13.0 0.00 0.00 0.00 26 996.9
20260504234534 66 289 2.6 16.5 0.00 0.00 0.00 23 996.9
20260504233036 66 291 18.2 25.2 0.00 0.00 0.00 25 996.5
20260504231526 68 350 7.8 12.2 0.00 0.00 0.00 21 996.2
20260504230025 68 11 8.7 13.9 0.00 0.00 0.00 21 995.9
20260504224523 69 17 8.7 16.5 0.00 0.00 0.00 20 995.8
20260504223033 69 37 10.4 13.0 0.00 0.00 0.00 20 995.9
20260504221520 70 60 12.2 20.9 0.00 0.00 0.00 20 995.7
20260504220018 70 59 10.4 19.1 0.00 0.00 0.00 19 995.7
20260504214516 71 350 11.3 16.5 0.00 0.00 0.00 18 995.8
20260504213029 72 32 11.3 17.4 0.00 0.00 0.00 17 996.0
20260504211513 72 351 11.3 20.9 0.00 0.00 0.00 18 996.1
20260504210012 72 16 3.5 16.5 0.00 0.00 0.00 16 996.5
20260504204524 72 44 7.8 10.4 0.00 0.00 0.00 16 996.5
20260504203005 70 23 6.1 13.0 0.00 0.00 0.00 17 996.8
20260504201504 71 26 12.2 21.7 0.00 0.00 0.00 17 997.0
20260504200003 70 326 2.6 12.2 0.00 0.00 0.00 16 997.1
20260504194502 70 340 11.3 15.6 0.00 0.00 0.00 17 997.0
20260504193101 70 317 6.1 11.3 0.00 0.00 0.00 16 997.2
20260504191603 70 167 1.7 5.2 0.00 0.00 0.00 16 996.9
20260504190105 70 167 4.3 7.8 0.00 0.00 0.00 15 996.9
20260504184600 71 112 10.4 14.8 0.00 0.00 0.00 15 996.9
20260504183057 70 142 7.8 12.2 0.00 0.00 0.00 17 997.0
20260504181600 69 22 7.8 17.4 0.00 0.00 0.00 16 997.2
20260504180056 70 296 10.4 13.9 0.00 0.00 0.00 14 997.1
20260504174550 0 261 3.5 12.2 0.00 0.00 0.00 997.1
20260504081519 47 209 1.7 5.2 0.00 0.00 0.00 53 1000.7
20260504044559 55 33 7.0 9.6 0.00 0.00 0.00 37 1002.7
20260504043055 56 22 6.1 8.7 0.00 0.00 0.00 36 1002.9
20260504041549 56 11 5.2 7.8 0.00 0.00 0.00 36 1003.1
20260504040104 55 10 6.1 7.8 0.00 0.00 0.00 37 1003.2
20260504034610 55 338 6.1 12.2 0.00 0.00 0.00 37 1003.1
20260504033048 57 310 7.8 10.4 0.00 0.00 0.00 35 1003.1
20260504031547 58 340 7.0 9.6 0.00 0.00 0.00 31 1002.8
20260504030104 60 318 7.0 10.4 0.00 0.00 0.00 28 1002.7